Zurück zum Katalog

STARLINK-2564

AktivKommunikationVLEO
NORAD 48284·PAYLOAD·🇺🇸 United States

Gestartet Apr 29, 2021 von Cape Canaveral Space Force Station

Loading…

Nächste Überflüge (nächste 24 Stunden)

TLE

AktuellSource: CelesTrak SupGP

Epoche: Sep 14, 2026, 20:38 UTC

1 48284C 21036J   26257.86020833  .00036550  00000+0  11751-2 0  2572
2 48284  53.1580 275.5241 0001141  87.2946 227.0634 15.31689308    18

Verfolge STARLINK-2564 in Echtzeit mit AllMySat

Download on the App Store